"Sample Date","Sample Time","Sensor Name","Sample Value","Units","Flow Rate","Sample Interval","Sample Volume","Laser Status","Number Channels","Micron Size 0","Counts/Channel 0","Micron Size 1","Counts/Channel 1","Micron Size 2","Counts/Channel 2","Micron Size 3","Counts/Channel 3","Micron Size 4","Counts/Channel 4","Micron Size 5","Counts/Channel 5","Micron Size 6","Counts/Channel 6","Micron Size 7","Counts/Channel 7","Micron Size 8","Counts/Channel 8","Micron Size 9","Counts/Channel 9","Micron Size 10","Counts/Channel 10","Micron Size 11","Counts/Channel 11","Micron Size 12","Counts/Channel 12","Micron Size 13","Counts/Channel 13","Micron Size 14","Counts/Channel 14","Micron Size 15","Counts/Channel 15","Micron Size 16","Counts/Channel 16","Micron Size 17","Counts/Channel 17","Micron Size 18","Counts/Channel 18","Micron Size 19","Counts/Channel 19","Micron Size 20","Counts/Channel 20","Micron Size 21","Counts/Channel 21","Micron Size 22","Counts/Channel 22","Micron Size 23","Counts/Channel 23","Micron Size 24","Counts/Channel 24","Micron Size 25","Counts/Channel 25","Micron Size 26","Counts/Channel 26","Micron Size 27","Counts/Channel 27","Micron Size 28","Counts/Channel 28","Micron Size 29","Counts/Channel 29","Micron Size 30","Counts/Channel 30","Micron Size 31","Counts/Channel 31"
"07/01/06","02:00:04","AMMA06",64288.000,"cc",28360.633,6.00,2836.064,1,6,0.100,35365.000,0.200,22742.000,0.300,5025.000,0.500,708.000,1.000,447.000,5.000,1.000
"07/01/06","02:00:10","AMMA06",63561.000,"cc",28336.111,6.00,2833.611,1,6,0.100,35164.000,0.200,22282.000,0.300,4941.000,0.500,697.000,1.000,476.000,5.000,1.000
"07/01/06","02:00:16","AMMA06",63636.000,"cc",28291.824,6.00,2829.183,1,6,0.100,35359.000,0.200,22187.000,0.300,4961.000,0.500,688.000,1.000,440.000,5.000,1.000
"07/01/06","02:00:22","AMMA06",64181.000,"cc",28303.746,6.00,2830.375,1,6,0.100,35818.000,0.200,22288.000,0.300,4990.000,0.500,628.000,1.000,456.000,5.000,1.000
"07/01/06","02:00:28","AMMA06",64207.000,"cc",28323.525,6.00,2832.353,1,6,0.100,35559.000,0.200,22548.000,0.300,4987.000,0.500,665.000,1.000,448.000,5.000,0
"07/01/06","02:00:34","AMMA06",63984.000,"cc",28307.223,6.00,2830.722,1,6,0.100,35489.000,0.200,22259.000,0.300,5160.000,0.500,632.000,1.000,444.000,5.000,0
"07/01/06","02:00:40","AMMA06",64074.000,"cc",28296.092,6.00,2829.609,1,6,0.100,35362.000,0.200,22511.000,0.300,5009.000,0.500,740.000,1.000,452.000,5.000,0
"07/01/06","02:00:46","AMMA06",63582.000,"cc",28348.383,6.00,2834.838,1,6,0.100,35357.000,0.200,22297.000,0.300,4826.000,0.500,643.000,1.000,458.000,5.000,1.000
"07/01/06","02:00:52","AMMA06",63892.000,"cc",28293.824,6.00,2829.383,1,6,0.100,35409.000,0.200,22372.000,0.300,4996.000,0.500,685.000,1.000,430.000,5.000,0
"07/01/06","02:00:58","AMMA06",64480.000,"cc",28275.857,6.00,2827.586,1,6,0.100,36032.000,0.200,22308.000,0.300,5034.000,0.500,641.000,1.000,464.000,5.000,1.000
"07/01/06","02:01:04","AMMA06",63623.000,"cc",28359.881,6.00,2835.988,1,6,0.100,35184.000,0.200,22274.000,0.300,4989.000,0.500,723.000,1.000,452.000,5.000,1.000
"07/01/06","02:01:10","AMMA06",64228.000,"cc",28280.840,6.00,2828.084,1,6,0.100,35774.000,0.200,22306.000,0.300,5084.000,0.500,648.000,1.000,416.000,5.000,0
"07/01/06","02:01:16","AMMA06",63844.000,"cc",28325.084,6.00,2832.509,1,6,0.100,35281.000,0.200,22340.000,0.300,5091.000,0.500,680.000,1.000,452.000,5.000,0
"07/01/06","02:01:22","AMMA06",63875.000,"cc",28368.701,6.00,2836.870,1,6,0.100,35292.000,0.200,22509.000,0.300,4954.000,0.500,685.000,1.000,435.000,5.000,0
"07/01/06","02:01:28","AMMA06",63451.000,"cc",28294.217,6.00,2829.422,1,6,0.100,35029.000,0.200,22345.000,0.300,4986.000,0.500,641.000,1.000,450.000,5.000,0
"07/01/06","02:01:34","AMMA06",63985.000,"cc",28304.518,6.00,2830.452,1,6,0.100,35638.000,0.200,22137.000,0.300,5055.000,0.500,686.000,1.000,467.000,5.000,2.000
"07/01/06","02:01:40","AMMA06",63909.000,"cc",28353.422,6.00,2835.342,1,6,0.100,35557.000,0.200,22191.000,0.300,4985.000,0.500,694.000,1.000,482.000,5.000,0
"07/01/06","02:01:46","AMMA06",63865.000,"cc",28376.881,6.00,2837.688,1,6,0.100,35278.000,0.200,22432.000,0.300,5005.000,0.500,674.000,1.000,476.000,5.000,0
"07/01/06","02:01:52","AMMA06",63486.000,"cc",28336.395,6.00,2833.640,1,6,0.100,35228.000,0.200,22182.000,0.300,4987.000,0.500,653.000,1.000,436.000,5.000,0
"07/01/06","02:01:58","AMMA06",63909.000,"cc",28279.555,6.00,2827.956,1,6,0.100,35622.000,0.200,22214.000,0.300,4945.000,0.500,678.000,1.000,450.000,5.000,0
"07/01/06","02:02:04","AMMA06",64498.000,"cc",28307.350,6.00,2830.735,1,6,0.100,35676.000,0.200,22698.000,0.300,4950.000,0.500,682.000,1.000,490.000,5.000,2.000
"07/01/06","02:02:10","AMMA06",63920.000,"cc",28336.256,6.00,2833.626,1,6,0.100,35626.000,0.200,22253.000,0.300,4915.000,0.500,698.000,1.000,428.000,5.000,0
"07/01/06","02:02:16","AMMA06",63943.000,"cc",28311.275,6.00,2831.128,1,6,0.100,35566.000,0.200,22187.000,0.300,4998.000,0.500,704.000,1.000,486.000,5.000,2.000
"07/01/06","02:02:22","AMMA06",63950.000,"cc",28364.938,6.00,2836.494,1,6,0.100,35423.000,0.200,22325.000,0.300,5087.000,0.500,655.000,1.000,459.000,5.000,1.000
"07/01/06","02:02:28","AMMA06",64273.000,"cc",28272.641,6.00,2827.264,1,6,0.100,35918.000,0.200,22257.000,0.300,4970.000,0.500,687.000,1.000,441.000,5.000,0
"07/01/06","02:02:34","AMMA06",64393.000,"cc",28314.109,6.00,2831.411,1,6,0.100,36055.000,0.200,22186.000,0.300,5054.000,0.500,656.000,1.000,442.000,5.000,0
"07/01/06","02:02:40","AMMA06",66644.000,"cc",28338.658,6.00,2833.866,1,6,0.100,37369.000,0.200,22969.000,0.300,5108.000,0.500,716.000,1.000,481.000,5.000,1.000
"07/01/06","02:02:46","AMMA06",67303.000,"cc",28313.031,6.00,2831.303,1,6,0.100,37494.000,0.200,23014.000,0.300,5328.000,0.500,912.000,1.000,554.000,5.000,1.000
"07/01/06","02:02:52","AMMA06",69806.000,"cc",28325.631,6.00,2832.563,1,6,0.100,39775.000,0.200,23414.000,0.300,5302.000,0.500,774.000,1.000,541.000,5.000,0
"07/01/06","02:02:58","AMMA06",95129.000,"cc",28330.846,6.00,2833.085,1,6,0.100,60782.000,0.200,27420.000,0.300,5571.000,0.500,833.000,1.000,522.000,5.000,1.000
"07/01/06","02:03:04","AMMA06",210853.000,"cc",28289.793,6.00,2828.980,1,6,0.100,153451.000,0.200,48854.000,0.300,7313.000,0.500,735.000,1.000,498.000,5.000,2.000
"07/01/06","02:03:10","AMMA06",189214.000,"cc",28344.830,6.00,2834.483,1,6,0.100,136449.000,0.200,44648.000,0.300,6904.000,0.500,764.000,1.000,449.000,5.000,0
"07/01/06","02:03:16","AMMA06",281051.000,"cc",28286.992,6.00,2828.700,1,6,0.100,208080.000,0.200,63606.000,0.300,8170.000,0.500,709.000,1.000,485.000,5.000,1.000
"07/01/06","02:03:22","AMMA06",339525.000,"cc",28349.941,6.00,2834.994,1,6,0.100,251331.000,0.200,77581.000,0.300,9392.000,0.500,773.000,1.000,448.000,5.000,0
"07/01/06","02:03:28","AMMA06",280379.000,"cc",28337.176,6.00,2833.718,1,6,0.100,208563.000,0.200,62748.000,0.300,7895.000,0.500,705.000,1.000,468.000,5.000,0
"07/01/06","02:03:34","AMMA06",256096.000,"cc",28314.100,6.00,2831.410,1,6,0.100,190628.000,0.200,56745.000,0.300,7589.000,0.500,704.000,1.000,429.000,5.000,1.000
"07/01/06","02:03:40","AMMA06",205837.000,"cc",28283.893,6.00,2828.389,1,6,0.100,151373.000,0.200,46793.000,0.300,6552.000,0.500,731.000,1.000,388.000,5.000,0
"07/01/06","02:03:46","AMMA06",208113.000,"cc",28365.557,6.00,2836.556,1,6,0.100,153662.000,0.200,46627.000,0.300,6662.000,0.500,737.000,1.000,425.000,5.000,0
"07/01/06","02:03:52","AMMA06",181304.000,"cc",28294.147,6.00,2829.415,1,6,0.100,132519.000,0.200,41332.000,0.300,6327.000,0.500,685.000,1.000,440.000,5.000,1.000
"07/01/06","02:03:58","AMMA06",198333.000,"cc",28293.799,6.00,2829.380,1,6,0.100,145945.000,0.200,44799.000,0.300,6428.000,0.500,748.000,1.000,413.000,5.000,0
"07/01/06","02:04:04","AMMA06",237410.000,"cc",28290.742,6.00,2829.075,1,6,0.100,176468.000,0.200,52597.000,0.300,7184.000,0.500,696.000,1.000,464.000,5.000,1.000
"07/01/06","02:04:10","AMMA06",241595.000,"cc",28315.445,6.00,2831.545,1,6,0.100,180200.000,0.200,53003.000,0.300,7168.000,0.500,772.000,1.000,452.000,5.000,0
"07/01/06","02:04:16","AMMA06",236509.000,"cc",28348.715,6.00,2834.872,1,6,0.100,176559.000,0.200,51864.000,0.300,6899.000,0.500,736.000,1.000,451.000,5.000,0
"07/01/06","02:04:22","AMMA06",236630.000,"cc",28299.863,6.00,2829.987,1,6,0.100,176986.000,0.200,51580.000,0.300,6878.000,0.500,739.000,1.000,447.000,5.000,0
"07/01/06","02:04:28","AMMA06",251353.000,"cc",28302.848,6.00,2830.285,1,6,0.100,188455.000,0.200,54494.000,0.300,7158.000,0.500,777.000,1.000,469.000,5.000,0
"07/01/06","02:04:34","AMMA06",239757.000,"cc",28304.756,6.00,2830.476,1,6,0.100,178804.000,0.200,52866.000,0.300,6843.000,0.500,734.000,1.000,510.000,5.000,0
"07/01/06","02:04:40","AMMA06",166938.000,"cc",28341.098,6.00,2834.110,1,6,0.100,120809.000,0.200,38853.000,0.300,6072.000,0.500,734.000,1.000,469.000,5.000,1.000
"07/01/06","02:04:46","AMMA06",90022.000,"cc",28336.295,6.00,2833.630,1,6,0.100,57372.000,0.200,26379.000,0.300,5180.000,0.500,674.000,1.000,417.000,5.000,0
"07/01/06","02:04:52","AMMA06",120668.000,"cc",28309.721,6.00,2830.972,1,6,0.100,82890.000,0.200,31065.000,0.300,5540.000,0.500,720.000,1.000,452.000,5.000,1.000
"07/01/06","02:04:58","AMMA06",103572.000,"cc",28331.156,6.00,2833.116,1,6,0.100,69131.000,0.200,28002.000,0.300,5341.000,0.500,651.000,1.000,446.000,5.000,1.000
"07/01/06","02:05:04","AMMA06",126387.000,"cc",28342.936,6.00,2834.294,1,6,0.100,87656.000,0.200,32074.000,0.300,5513.000,0.500,720.000,1.000,424.000,5.000,0
"07/01/06","02:05:10","AMMA06",140696.000,"cc",28268.152,6.00,2826.815,1,6,0.100,99348.000,0.200,34273.000,0.300,5894.000,0.500,713.000,1.000,468.000,5.000,0
"07/01/06","02:05:16","AMMA06",137623.000,"cc",28342.330,6.00,2834.233,1,6,0.100,96891.000,0.200,33727.000,0.300,5740.000,0.500,777.000,1.000,487.000,5.000,1.000
"07/01/06","02:05:22","AMMA06",167805.000,"cc",28307.436,6.00,2830.744,1,6,0.100,122238.000,0.200,38174.000,0.300,6040.000,0.500,820.000,1.000,533.000,5.000,0
"07/01/06","02:05:28","AMMA06",163771.000,"cc",28323.006,6.00,2832.301,1,6,0.100,118781.000,0.200,37675.000,0.300,6029.000,0.500,764.000,1.000,520.000,5.000,2.000
"07/01/06","02:05:34","AMMA06",184165.000,"cc",28322.729,6.00,2832.273,1,6,0.100,135678.000,0.200,40927.000,0.300,6177.000,0.500,870.000,1.000,513.000,5.000,0
"07/01/06","02:05:40","AMMA06",191327.000,"cc",28351.373,6.00,2835.138,1,6,0.100,141651.000,0.200,41865.000,0.300,6313.000,0.500,918.000,1.000,580.000,5.000,0
"07/01/06","02:05:46","AMMA06",198351.000,"cc",28244.981,6.00,2824.498,1,6,0.100,147360.000,0.200,43163.000,0.300,6410.000,0.500,838.000,1.000,580.000,5.000,0
"07/01/06","02:05:52","AMMA06",189214.000,"cc",28322.020,6.00,2832.202,1,6,0.100,139737.000,0.200,41819.000,0.300,6183.000,0.500,906.000,1.000,568.000,5.000,1.000
"07/01/06","02:05:58","AMMA06",170300.000,"cc",28349.154,6.00,2834.916,1,6,0.100,124075.000,0.200,38570.000,0.300,6168.000,0.500,898.000,1.000,589.000,5.000,0
"07/01/06","02:06:04","AMMA06",162099.000,"cc",28324.346,6.00,2832.435,1,6,0.100,117734.000,0.200,36835.000,0.300,6015.000,0.500,923.000,1.000,592.000,5.000,0
"07/01/06","02:06:10","AMMA06",146636.000,"cc",28289.799,6.00,2828.980,1,6,0.100,104556.000,0.200,34831.000,0.300,5862.000,0.500,848.000,1.000,539.000,5.000,0
"07/01/06","02:06:16","AMMA06",147429.000,"cc",28290.252,6.00,2829.025,1,6,0.100,104944.000,0.200,34972.000,0.300,5990.000,0.500,937.000,1.000,585.000,5.000,1.000
"07/01/06","02:06:22","AMMA06",132343.000,"cc",28297.494,6.00,2829.750,1,6,0.100,92209.000,0.200,32998.000,0.300,5824.000,0.500,804.000,1.000,508.000,5.000,0
"07/01/06","02:06:28","AMMA06",115186.000,"cc",28356.070,6.00,2835.607,1,6,0.100,78175.000,0.200,30061.000,0.300,5664.000,0.500,745.000,1.000,541.000,5.000,0
"07/01/06","02:06:34","AMMA06",105874.000,"cc",28301.400,6.00,2830.140,1,6,0.100,70328.000,0.200,28676.000,0.300,5548.000,0.500,806.000,1.000,515.000,5.000,1.000
"07/01/06","02:06:40","AMMA06",103740.000,"cc",28324.920,6.00,2832.492,1,6,0.100,68650.000,0.200,28236.000,0.300,5577.000,0.500,773.000,1.000,502.000,5.000,2.000
"07/01/06","02:06:46","AMMA06",108541.000,"cc",28316.445,6.00,2831.645,1,6,0.100,72185.000,0.200,29356.000,0.300,5736.000,0.500,790.000,1.000,474.000,5.000,0
"07/01/06","02:06:52","AMMA06",100814.000,"cc",28355.807,6.00,2835.581,1,6,0.100,66017.000,0.200,28008.000,0.300,5506.000,0.500,784.000,1.000,499.000,5.000,0
"07/01/06","02:06:58","AMMA06",107527.000,"cc",28299.551,6.00,2829.955,1,6,0.100,71161.000,0.200,29145.000,0.300,5838.000,0.500,813.000,1.000,569.000,5.000,1.000
"07/01/06","02:07:04","AMMA06",100260.000,"cc",28297.498,6.00,2829.750,1,6,0.100,65195.000,0.200,28047.000,0.300,5668.000,0.500,799.000,1.000,551.000,5.000,0
"07/01/06","02:07:10","AMMA06",89953.000,"cc",28354.139,6.00,2835.414,1,6,0.100,56495.000,0.200,26428.000,0.300,5684.000,0.500,823.000,1.000,521.000,5.000,2.000
"07/01/06","02:07:16","AMMA06",84788.000,"cc",28303.789,6.00,2830.379,1,6,0.100,52191.000,0.200,25804.000,0.300,5519.000,0.500,769.000,1.000,505.000,5.000,0
"07/01/06","02:07:22","AMMA06",84256.000,"cc",28335.898,6.00,2833.590,1,6,0.100,52066.000,0.200,25348.000,0.300,5521.000,0.500,791.000,1.000,530.000,5.000,0
"07/01/06","02:07:28","AMMA06",83759.000,"cc",28365.484,6.00,2836.549,1,6,0.100,51881.000,0.200,25191.000,0.300,5436.000,0.500,753.000,1.000,497.000,5.000,1.000
"07/01/06","02:07:34","AMMA06",86277.000,"cc",28328.037,6.00,2832.804,1,6,0.100,53608.000,0.200,26007.000,0.300,5424.000,0.500,733.000,1.000,505.000,5.000,0
"07/01/06","02:07:40","AMMA06",94199.000,"cc",28284.969,6.00,2828.497,1,6,0.100,60204.000,0.200,26898.000,0.300,5686.000,0.500,866.000,1.000,545.000,5.000,0
"07/01/06","02:07:46","AMMA06",86783.000,"cc",28285.117,6.00,2828.512,1,6,0.100,54323.000,0.200,25661.000,0.300,5542.000,0.500,794.000,1.000,463.000,5.000,0
"07/01/06","02:07:52","AMMA06",84296.000,"cc",28317.566,6.00,2831.757,1,6,0.100,52275.000,0.200,25362.000,0.300,5442.000,0.500,761.000,1.000,455.000,5.000,1.000
"07/01/06","02:07:58","AMMA06",74704.000,"cc",28294.688,6.00,2829.469,1,6,0.100,44368.000,0.200,23962.000,0.300,5183.000,0.500,709.000,1.000,482.000,5.000,0
"07/01/06","02:08:04","AMMA06",75919.000,"cc",28326.641,6.00,2832.664,1,6,0.100,45089.000,0.200,24328.000,0.300,5286.000,0.500,756.000,1.000,460.000,5.000,0
"07/01/06","02:08:10","AMMA06",87255.000,"cc",28399.842,6.00,2839.984,1,6,0.100,54791.000,0.200,25830.000,0.300,5405.000,0.500,764.000,1.000,464.000,5.000,1.000
"07/01/06","02:08:16","AMMA06",79870.000,"cc",28291.629,6.00,2829.163,1,6,0.100,48622.000,0.200,24721.000,0.300,5363.000,0.500,698.000,1.000,465.000,5.000,1.000
"07/01/06","02:08:22","AMMA06",82357.000,"cc",28311.053,6.00,2831.106,1,6,0.100,50761.000,0.200,24921.000,0.300,5411.000,0.500,775.000,1.000,489.000,5.000,0
"07/01/06","02:08:28","AMMA06",84367.000,"cc",28298.311,6.00,2829.831,1,6,0.100,52517.000,0.200,25325.000,0.300,5255.000,0.500,762.000,1.000,507.000,5.000,1.000
"07/01/06","02:08:34","AMMA06",87996.000,"cc",28288.022,6.00,2828.802,1,6,0.100,55502.000,0.200,25696.000,0.300,5464.000,0.500,783.000,1.000,550.000,5.000,1.000
"07/01/06","02:08:40","AMMA06",85693.000,"cc",28372.477,6.00,2837.248,1,6,0.100,53380.000,0.200,25537.000,0.300,5440.000,0.500,824.000,1.000,512.000,5.000,0
"07/01/06","02:08:46","AMMA06",92819.000,"cc",28316.453,6.00,2831.646,1,6,0.100,59874.000,0.200,26260.000,0.300,5394.000,0.500,781.000,1.000,510.000,5.000,0
"07/01/06","02:08:52","AMMA06",87988.000,"cc",28294.418,6.00,2829.442,1,6,0.100,55465.000,0.200,25769.000,0.300,5446.000,0.500,804.000,1.000,503.000,5.000,1.000
"07/01/06","02:08:58","AMMA06",96942.000,"cc",28315.182,6.00,2831.518,1,6,0.100,62910.000,0.200,27124.000,0.300,5578.000,0.500,825.000,1.000,505.000,5.000,0
"07/01/06","02:09:04","AMMA06",101148.000,"cc",28268.012,6.00,2826.801,1,6,0.100,66317.000,0.200,27884.000,0.300,5601.000,0.500,823.000,1.000,523.000,5.000,0
"07/01/06","02:09:10","AMMA06",103488.000,"cc",28339.148,6.00,2833.915,1,6,0.100,68245.000,0.200,28141.000,0.300,5711.000,0.500,880.000,1.000,511.000,5.000,0
"07/01/06","02:09:16","AMMA06",93888.000,"cc",28336.139,6.00,2833.614,1,6,0.100,60574.000,0.200,26602.000,0.300,5418.000,0.500,816.000,1.000,477.000,5.000,1.000
"07/01/06","02:09:22","AMMA06",84253.000,"cc",28341.938,6.00,2834.194,1,6,0.100,52098.000,0.200,25462.000,0.300,5424.000,0.500,775.000,1.000,494.000,5.000,0
"07/01/06","02:09:28","AMMA06",83392.000,"cc",28332.529,6.00,2833.253,1,6,0.100,51530.000,0.200,25257.000,0.300,5315.000,0.500,762.000,1.000,528.000,5.000,0
"07/01/06","02:09:34","AMMA06",81766.000,"cc",28260.690,6.00,2826.069,1,6,0.100,49998.000,0.200,25142.000,0.300,5388.000,0.500,730.000,1.000,508.000,5.000,0
"07/01/06","02:09:40","AMMA06",79472.000,"cc",28347.613,6.00,2834.762,1,6,0.100,47980.000,0.200,24820.000,0.300,5364.000,0.500,791.000,1.000,516.000,5.000,1.000
"07/01/06","02:09:46","AMMA06",75041.000,"cc",28314.463,6.00,2831.447,1,6,0.100,44756.000,0.200,23880.000,0.300,5247.000,0.500,719.000,1.000,439.000,5.000,0
"07/01/06","02:09:52","AMMA06",75612.000,"cc",28283.465,6.00,2828.347,1,6,0.100,44981.000,0.200,24063.000,0.300,5322.000,0.500,740.000,1.000,506.000,5.000,0
"07/01/06","02:09:58","AMMA06",76117.000,"cc",28289.117,6.00,2828.912,1,6,0.100,45574.000,0.200,24032.000,0.300,5303.000,0.500,731.000,1.000,477.000,5.000,0
"07/01/06","02:10:04","AMMA06",84293.000,"cc",28328.129,6.00,2832.813,1,6,0.100,52202.000,0.200,25449.000,0.300,5379.000,0.500,756.000,1.000,507.000,5.000,0
"07/01/06","02:10:10","AMMA06",90044.000,"cc",28343.777,6.00,2834.378,1,6,0.100,56935.000,0.200,26248.000,0.300,5523.000,0.500,783.000,1.000,555.000,5.000,0
"07/01/06","02:10:16","AMMA06",84326.000,"cc",28327.871,6.00,2832.787,1,6,0.100,52639.000,0.200,24897.000,0.300,5450.000,0.500,782.000,1.000,558.000,5.000,0
"07/01/06","02:10:22","AMMA06",76909.000,"cc",28317.084,6.00,2831.709,1,6,0.100,46050.000,0.200,24325.000,0.300,5341.000,0.500,724.000,1.000,469.000,5.000,0
"07/01/06","02:10:28","AMMA06",77166.000,"cc",28296.490,6.00,2829.649,1,6,0.100,46369.000,0.200,24274.000,0.300,5248.000,0.500,758.000,1.000,517.000,5.000,0
"07/01/06","02:10:34","AMMA06",75263.000,"cc",28299.072,6.00,2829.908,1,6,0.100,44690.000,0.200,24091.000,0.300,5340.000,0.500,694.000,1.000,448.000,5.000,0
"07/01/06","02:10:40","AMMA06",71884.000,"cc",28357.525,6.00,2835.753,1,6,0.100,42049.000,0.200,23606.000,0.300,5053.000,0.500,725.000,1.000,451.000,5.000,0
"07/01/06","02:10:46","AMMA06",73238.000,"cc",28298.652,6.00,2829.866,1,6,0.100,43122.000,0.200,23696.000,0.300,5231.000,0.500,703.000,1.000,485.000,5.000,1.000
"07/01/06","02:10:52","AMMA06",74896.000,"cc",28313.162,6.00,2831.316,1,6,0.100,44597.000,0.200,23713.000,0.300,5360.000,0.500,750.000,1.000,476.000,5.000,0
"07/01/06","02:10:58","AMMA06",70997.000,"cc",28279.508,6.00,2827.951,1,6,0.100,41211.000,0.200,23389.000,0.300,5214.000,0.500,686.000,1.000,496.000,5.000,1.000
"07/01/06","02:11:04","AMMA06",71581.000,"cc",28330.707,6.00,2833.071,1,6,0.100,41708.000,0.200,23584.000,0.300,5158.000,0.500,690.000,1.000,440.000,5.000,1.000
"07/01/06","02:11:10","AMMA06",72415.000,"cc",28334.754,6.00,2833.476,1,6,0.100,42593.000,0.200,23448.000,0.300,5223.000,0.500,728.000,1.000,423.000,5.000,0
"07/01/06","02:11:16","AMMA06",68106.000,"cc",28355.463,6.00,2835.546,1,6,0.100,39162.000,0.200,22733.000,0.300,5106.000,0.500,656.000,1.000,448.000,5.000,1.000
"07/01/06","02:11:22","AMMA06",70622.000,"cc",28290.531,6.00,2829.053,1,6,0.100,41082.000,0.200,23216.000,0.300,5225.000,0.500,664.000,1.000,433.000,5.000,2.000
"07/01/06","02:11:28","AMMA06",68954.000,"cc",28275.918,6.00,2827.592,1,6,0.100,39530.000,0.200,23253.000,0.300,5027.000,0.500,700.000,1.000,443.000,5.000,1.000
"07/01/06","02:11:34","AMMA06",69440.000,"cc",28320.318,6.00,2832.032,1,6,0.100,40320.000,0.200,22881.000,0.300,5109.000,0.500,667.000,1.000,463.000,5.000,0
"07/01/06","02:11:40","AMMA06",72304.000,"cc",28298.465,6.00,2829.847,1,6,0.100,42572.000,0.200,23462.000,0.300,5124.000,0.500,711.000,1.000,434.000,5.000,1.000
"07/01/06","02:11:46","AMMA06",81270.000,"cc",28298.272,6.00,2829.827,1,6,0.100,50444.000,0.200,24523.000,0.300,5027.000,0.500,767.000,1.000,507.000,5.000,2.000
"07/01/06","02:11:52","AMMA06",82937.000,"cc",28313.590,6.00,2831.359,1,6,0.100,51943.000,0.200,24541.000,0.300,5168.000,0.500,774.000,1.000,511.000,5.000,0
"07/01/06","02:11:58","AMMA06",86281.000,"cc",28303.828,6.00,2830.383,1,6,0.100,54557.000,0.200,25063.000,0.300,5192.000,0.500,908.000,1.000,561.000,5.000,0
"07/01/06","02:12:04","AMMA06",95910.000,"cc",28327.758,6.00,2832.776,1,6,0.100,63223.000,0.200,25916.000,0.300,5219.000,0.500,940.000,1.000,612.000,5.000,0
"07/01/06","02:12:10","AMMA06",109143.000,"cc",28377.967,6.00,2837.797,1,6,0.100,74014.000,0.200,27953.000,0.300,5520.000,0.500,1033.000,1.000,623.000,5.000,0
"07/01/06","02:12:16","AMMA06",121832.000,"cc",28359.307,6.00,2835.931,1,6,0.100,85163.000,0.200,29425.000,0.300,5519.000,0.500,1094.000,1.000,631.000,5.000,0
"07/01/06","02:12:22","AMMA06",130780.000,"cc",28261.436,6.00,2826.144,1,6,0.100,92499.000,0.200,30990.000,0.300,5574.000,0.500,1050.000,1.000,666.000,5.000,1.000
"07/01/06","02:12:28","AMMA06",120889.000,"cc",28275.875,6.00,2827.588,1,6,0.100,83838.000,0.200,29553.000,0.300,5653.000,0.500,1144.000,1.000,700.000,5.000,1.000
"07/01/06","02:12:34","AMMA06",98321.000,"cc",28325.467,6.00,2832.547,1,6,0.100,64480.000,0.200,26614.000,0.300,5584.000,0.500,1015.000,1.000,628.000,5.000,0
"07/01/06","02:12:40","AMMA06",82492.000,"cc",28304.850,6.00,2830.485,1,6,0.100,51194.000,0.200,24500.000,0.300,5246.000,0.500,910.000,1.000,642.000,5.000,0
"07/01/06","02:12:46","AMMA06",83948.000,"cc",28298.565,6.00,2829.857,1,6,0.100,52561.000,0.200,24836.000,0.300,5194.000,0.500,863.000,1.000,493.000,5.000,1.000
"07/01/06","02:12:52","AMMA06",81454.000,"cc",28344.604,6.00,2834.460,1,6,0.100,50502.000,0.200,24226.000,0.300,5282.000,0.500,885.000,1.000,558.000,5.000,1.000
"07/01/06","02:12:58","AMMA06",74999.000,"cc",28283.975,6.00,2828.398,1,6,0.100,44844.000,0.200,23555.000,0.300,5190.000,0.500,884.000,1.000,526.000,5.000,0
"07/01/06","02:13:04","AMMA06",71282.000,"cc",28301.504,6.00,2830.151,1,6,0.100,41455.000,0.200,23099.000,0.300,5216.000,0.500,929.000,1.000,582.000,5.000,1.000
"07/01/06","02:13:10","AMMA06",69394.000,"cc",28311.268,6.00,2831.127,1,6,0.100,39827.000,0.200,22934.000,0.300,5180.000,0.500,874.000,1.000,579.000,5.000,0
"07/01/06","02:13:16","AMMA06",74219.000,"cc",28325.846,6.00,2832.585,1,6,0.100,43364.000,0.200,23840.000,0.300,5394.000,0.500,938.000,1.000,682.000,5.000,1.000
"07/01/06","02:13:22","AMMA06",70665.000,"cc",28332.520,6.00,2833.252,1,6,0.100,40990.000,0.200,23040.000,0.300,5142.000,0.500,871.000,1.000,622.000,5.000,0
"07/01/06","02:13:28","AMMA06",71950.000,"cc",28337.272,6.00,2833.727,1,6,0.100,42201.000,0.200,23258.000,0.300,5072.000,0.500,868.000,1.000,550.000,5.000,1.000
"07/01/06","02:13:34","AMMA06",68394.000,"cc",28314.559,6.00,2831.456,1,6,0.100,39098.000,0.200,22869.000,0.300,5131.000,0.500,789.000,1.000,506.000,5.000,1.000
"07/01/06","02:13:40","AMMA06",66098.000,"cc",28285.625,6.00,2828.563,1,6,0.100,37296.000,0.200,22503.000,0.300,5103.000,0.500,709.000,1.000,487.000,5.000,0
"07/01/06","02:13:46","AMMA06",70311.000,"cc",28318.867,6.00,2831.887,1,6,0.100,40847.000,0.200,23224.000,0.300,4987.000,0.500,739.000,1.000,512.000,5.000,2.000
"07/01/06","02:13:52","AMMA06",67535.000,"cc",28359.568,6.00,2835.957,1,6,0.100,38406.000,0.200,23016.000,0.300,4906.000,0.500,736.000,1.000,470.000,5.000,1.000
"07/01/06","02:13:58","AMMA06",64658.000,"cc",28291.635,6.00,2829.164,1,6,0.100,36299.000,0.200,22349.000,0.300,4852.000,0.500,675.000,1.000,482.000,5.000,1.000
"07/01/06","02:14:04","AMMA06",64450.000,"cc",28275.455,6.00,2827.546,1,6,0.100,35858.000,0.200,22444.000,0.300,4978.000,0.500,688.000,1.000,479.000,5.000,3.000